Location: Fort Worth, Tx
(32.7431°N, 97.3695°W)
Time: 06:58:40
(UTC-04:00)

Explorer 11/Cluster Stage 4 - Pass Details

Date: 31 January 2023
Orbit: 466 x 1241 km, 28.8° (Epoch: 02 April)

Event Time Altitude Azimuth Distance (km) Brightness Sun altitude
Exits shadow 05:31:25 19° 173° (S) 2,536 9.1 -36.7°
Maximum altitude 05:33:45 22° 150° (SSE) 2,418 9.2 -36.2°
Drops below altitude 10° 05:39:33 10° 105° (ESE) 3,198 10.4 -35.0°
Sets 05:43:12 0° 90° (E) 4,133 11.3 -34.2°
